Location: La Trinit�
(48.1620°N, 3.4512°W)
Time: 09:39:07
(UTC+00:00)

Cosmos 1633 Rocket - Pass Details

Date: 08 May 2021
Orbit: 608 x 622 km, 82.5° (Epoch: 13 June)

Event Time Altitude Azimuth Distance (km) Brightness Sun altitude
Rises 21:21:47 0° 349° (NNW) 2,897 7.6 -14.5°
Reaches altitude 10° 21:24:00 10° 348° (NNW) 1,989 6.6 -14.7°
Maximum altitude 21:28:24 77° 264° (W) 641 3.1 -15.2°
Enters shadow 21:31:25 20° 179° (S) 1,440 4.5 -15.5°
